Regional Weather Roundup
Issued by NWS

Home | Current Version | Previous Version | Graphics & Text | Print | Product List | Glossary On
Versions: 1 2 3 4 5 6 7 8 9 10 11 12 13 14 15 16 17 18 19 20 21 22 23 24 25 26 27 28 29 30 31 32 33 34 35 36 37 38 39 40 41 42 43 44 45 46 47 48 49 50
000
ASUS43 KLSX 291459
RWRMO

WEATHER SUMMARY FOR MISSOURI
NATIONAL WEATHER SERVICE SPRINGFIELD MO
1000 AM CDT SUN MAR 29 2015

NOTE: "FAIR" INDICATES FEW OR NO CLOUDS BELOW 12,000 FEET WITH NO
       SIGNIFICANT WEATHER AND/OR OBSTRUCTIONS TO VISIBILITY.
       CURRENT SKY AND/OR WEATHER CONDITIONS ARE NOT AVAILABLE FOR
       CHILLICOTHE AND FARMINGTON.

MOZ001>031-035>038-043-044-053-054-291600-
...NORTHERN AND WESTERN MISSOURI...

CITY           SKY/WX    TMP DP  RH WIND       PRES   REMARKS
KANSAS CTY INT CLOUDY    46  38  73 SW15      29.96F
KANSAS C DTWN  CLOUDY    47  36  65 SW13G21   29.97F
LEE`S SUMMIT   CLOUDY    44  36  73 S14G22    29.99F
ST JOSEPH      CLOUDY    47  38  71 SW15      29.98R
CHILLICOTHE      N/A     42  35  76 S14       29.99F
KIRKSVILLE     CLOUDY    40  34  79 S17G29    29.96S

$$
MOZ066>068-077>081-088>096-101>105-291600-
...SOUTHWEST MISSOURI...

CITY           SKY/WX    TMP DP  RH WIND       PRES   REMARKS
SPRINGFIELD    MOSUNNY   44  31  60 SE15G25   30.03R
JOPLIN         MOSUNNY   54  37  52 W9        30.05R

$$
MOZ032>034-039>042-045>050-055>058-069>072-291600-
...CENTRAL MISSOURI...

CITY           SKY/WX    TMP DP  RH WIND       PRES   REMARKS
COLUMBIA       PTSUNNY   43  29  57 S17G30    30.08R
JEFFERSON CITY PTSUNNY   45  27  49 S17G29    30.04F
ROLLA          MOSUNNY   44  28  53 S22G32    30.05F
SEDALIA        CLOUDY    45  32  60 S7        30.06R
WHITEMAN AFB   CLOUDY    43  36  75 S8        30.03R
OSAGE BEACH    PTSUNNY   46  28  49 S18G25    30.06F

$$
MOZ051-052-059>065-291600-
...EAST CENTRAL MISSOURI...

CITY           SKY/WX    TMP DP  RH WIND       PRES   REMARKS
ST LOUIS INTL  MOSUNNY   45  19  35 S21G30    30.11F
SPIRIT OF STL  MOSUNNY   46  23  40 SW8G24    30.11F
ST CHARLES     PTSUNNY   43  24  47 S21       30.11F

$$
MOZ072>076-082>087-097>100-106>115-291600-
...SOUTH CENTRAL AND SOUTHEAST MISSOURI...

CITY           SKY/WX    TMP DP  RH WIND       PRES   REMARKS
CAPE GIRARDEAU SUNNY     44  24  45 S16       30.24F
FARMINGTON     SUNNY     45  21  39 S24G32    30.19F
POPLAR BLUFF   SUNNY     44  29  55 S13       30.22F
WEST PLAINS    SUNNY     41  28  60 SE10      30.15S

$$



USA.gov is the U.S. government's official web portal to all federal, state and local government web resources and services.